sat.trackr.live / text

‹ back to catalog

STARLINK-30987

NORAD 58487 · 2023-186Q

PAYLOAD ACTIVE UNKNOWN

§ Identity

Operator
Country
US
Launch date
2023-12-03
Launch site
AFETR
Launch vehicle
Mass (kg)
RCS (m²)

Purposes: comms

External: N2YO · Heavens-Above · Gunter

§ Orbital elements

Epoch: 2026-05-24T23:47:07.361952Z

Period
94.27 min
Inclination
43.0021°
Eccentricity
0.0001180
Mean motion
15.27581611 rev/d
Perigee alt
482.2 km
Apogee alt
483.9 km
Semi-major
6,861.2 km
B*
7.2435e-5
RAAN
352.8949°
Arg perigee
276.9226°
Mean anomaly
83.1491°
Rev number
13,755

§ Raw data

STARLINK-309871 58487U 23186Q   26144.99105743  .00001732  00000+0  72435-4 0  99942 58487  43.0021 352.8949 0001180 276.9226  83.1491 15.27581611137552

JSON: /api/v1/satellites/58487 · /tle

For live sub-satellite position, see the globe view (requires WebGL).

§ Visibility from observer

Set your observer location to see the next 7 days of passes ≥ 10°. The values pass through the URL so the page stays shareable.

No JS? Fill the form by hand. The geolocation button needs JavaScript.